This is the latest recevied weather packets stored in our database for station/object AD8BV. If no packets are shown the sender has not sent any weather packets the latest 1 day(s).
| Time | Temp. | Humidity | Pressure | Rain* | Wind** | Luminosity | Snow |
|---|---|---|---|---|---|---|---|
| 1777996211 | 10° C | 85% | 1009.2 hPa | 0 mm | 0 m/s | 203 W/m² | - |
| 1777995907 | 10° C | 84% | 1009.4 hPa | 0 mm | 0 m/s | 248 W/m² | - |
| 1777995603 | 10° C | 86% | 1009.3 hPa | 0 mm | 0.45 m/s, 267° | 263 W/m² | - |
| 1777995301 | 10° C | 86% | 1009.5 hPa | 0 mm | 0.89 m/s, 285° | 202 W/m² | - |
| 1777994997 | 10° C | 85% | 1009.4 hPa | 0 mm | 0.45 m/s, 233° | 128 W/m² | - |
| 1777994695 | 10° C | 86% | 1009.2 hPa | 1.78 mm | 0.89 m/s, 285° | 123 W/m² | - |
| 1777994390 | 10.56° C | 88% | 1009.1 hPa | 1.78 mm | 0.45 m/s, 288° | 184 W/m² | - |
| 1777994085 | 10° C | 88% | 1009.1 hPa | 0 mm | 0 m/s | 167 W/m² | - |
| 1777993783 | 10° C | 89% | 1009.2 hPa | 0 mm | 0.45 m/s, 263° | 102 W/m² | - |
| 1777993480 | 10° C | 88% | 1009.2 hPa | 0 mm | 0 m/s | 127 W/m² | - |
| 1777993179 | 10° C | 87% | 1009.2 hPa | 0 mm | 0 m/s | 103 W/m² | - |
| 1777992877 | 10° C | 87% | 1008.9 hPa | 0 mm | 0 m/s | 85 W/m² | - |
| 1777992575 | 10° C | 87% | 1009.1 hPa | 0 mm | 0.45 m/s, 281° | 82 W/m² | - |
| 1777992273 | 10° C | 85% | 1009 hPa | 0 mm | 0.45 m/s, 286° | 82 W/m² | - |
| 1777991970 | 10° C | 83% | 1009 hPa | 0 mm | 0.89 m/s, 335° | 71 W/m² | - |
| 1777991668 | 10° C | 81% | 1008.8 hPa | 0 mm | 0.45 m/s, 279° | 65 W/m² | - |
| 1777991365 | 10.56° C | 79% | 1008.7 hPa | 0 mm | 0.45 m/s, 273° | 68 W/m² | - |
| 1777991062 | 10.56° C | 77% | 1008.6 hPa | 0 mm | 0 m/s | 65 W/m² | - |
| 1777990759 | 11.11° C | 76% | 1008.8 hPa | 0 mm | 0.45 m/s, 256° | 46 W/m² | - |
| 1777990456 | 11.11° C | 75% | 1008.2 hPa | 0 mm | 0 m/s | 59 W/m² | - |
| 1777990153 | 11.11° C | 74% | 1008.2 hPa | 0 mm | 0.89 m/s, 291° | 55 W/m² | - |
| 1777989850 | 11.11° C | 73% | 1007.8 hPa | 0 mm | 0.89 m/s, 285° | 65 W/m² | - |
| 1777989547 | 11.11° C | 72% | 1007.9 hPa | 0 mm | 0.89 m/s, 312° | 88 W/m² | - |
| 1777989243 | 11.11° C | 73% | 1007.9 hPa | 0 mm | 0.89 m/s, 301° | 79 W/m² | - |
| 1777988939 | 11.67° C | 71% | 1007.9 hPa | 0 mm | 0.89 m/s, 284° | 104 W/m² | - |
* Rain latest hour (hover to see other rain measurements)
** Current wind speed in m/s (hover to see current wind gust speed)